Tracking 30990 objects as of 8-Jul-2025
HD Live streaming from Space Station
objects crossing your sky now

STARLINK-1457

Track STARLINK-1457 now!
10-day predictions
STARLINK-1457 is classified as:


NORAD ID: 45674
Int'l Code: 2020-035T
Perigee: 553.4 km
Apogee: 555.4 km
Inclination: 53.1 °
Period: 95.6 minutes
Semi major axis: 6925 km
RCS: Unknown
Launch date: June 4, 2020
Source: United States (US)
Launch site: AIR FORCE EASTERN TEST RANGE (AFETR)
Your satellite tracking list
Your tracking list is empty




NASA's NSSDC Master Catalog

Two Line Element Set (TLE):
1 45674U 20035T   25188.92172534 -.00000354  00000-0 -48515-5 0  9995
2 45674  53.0543  85.4187 0001420  80.9403 279.1747 15.06388981281818
Source of the keplerian elements: AFSPC